EN

Hourly Weather Abdulovka

Today, 14 May, Friday

Time Temperature Precipitation Wind Pressure Humidity
00:00 +16°C° 0.2 mm 2 mps 745 mmHg 82%
01:00 +16°C° 0.2 mm 2 mps 746 mmHg 82%
02:00 +16°C° 0.2 mm 2 mps 746 mmHg 81%
03:00 +15°C° 0 mm 2 mps 745 mmHg 81%
04:00 +16°C° 0 mm 2 mps 746 mmHg 80%
05:00 +16°C° 0 mm 2 mps 746 mmHg 79%
06:00 +17°C° 0 mm 2 mps 746 mmHg 79%
07:00 +18°C° 0 mm 2 mps 746 mmHg 75%
08:00 +20°C° 0 mm 2 mps 746 mmHg 71%
09:00 +21°C° 0 mm 2 mps 746 mmHg 67%
10:00 +24°C° 0 mm 3 mps 746 mmHg 63%
11:00 +25°C° 0 mm 3 mps 746 mmHg 60%
12:00 +27°C° 0 mm 3 mps 746 mmHg 56%
13:00 +27°C° 0 mm 3 mps 746 mmHg 54%
14:00 +28°C° 0 mm 4 mps 746 mmHg 52%
15:00 +28°C° 0 mm 4 mps 746 mmHg 51%
16:00 +28°C° 0 mm 3 mps 746 mmHg 56%
17:00 +27°C° 0 mm 3 mps 746 mmHg 60%
18:00 +26°C° 0 mm 3 mps 745 mmHg 65%
19:00 +25°C° 0 mm 3 mps 745 mmHg 66%
20:00 +24°C° 0 mm 3 mps 745 mmHg 67%
21:00 +21°C° 0 mm 3 mps 745 mmHg 68%
22:00 +21°C° 0 mm 4 mps 745 mmHg 65%
23:00 +20°C° 0 mm 4 mps 745 mmHg 62%

Tomorrow, 15 May, Saturday

Time Temperature Precipitation Wind Pressure Humidity
00:00 +20°C° 0 mm 5 mps 745 mmHg 59%
01:00 +19°C° 0 mm 4 mps 745 mmHg 59%
02:00 +18°C° 0 mm 4 mps 745 mmHg 59%
03:00 +17°C° 0 mm 4 mps 745 mmHg 60%
04:00 +18°C° 0 mm 4 mps 745 mmHg 59%
05:00 +18°C° 0 mm 4 mps 745 mmHg 59%
06:00 +18°C° 0 mm 4 mps 746 mmHg 58%
07:00 +20°C° 0 mm 5 mps 746 mmHg 54%
08:00 +21°C° 0 mm 5 mps 746 mmHg 49%
09:00 +23°C° 0 mm 6 mps 746 mmHg 44%
10:00 +24°C° 0 mm 6 mps 746 mmHg 41%
11:00 +27°C° 0 mm 6 mps 746 mmHg 39%
12:00 +28°C° 0 mm 7 mps 746 mmHg 36%
13:00 +28°C° 0 mm 6 mps 746 mmHg 37%
14:00 +29°C° 0 mm 6 mps 746 mmHg 38%
15:00 +29°C° 0 mm 6 mps 745 mmHg 39%
16:00 +28°C° 0 mm 5 mps 745 mmHg 44%
17:00 +27°C° 0 mm 4 mps 745 mmHg 49%
18:00 +26°C° 0 mm 3 mps 745 mmHg 54%
19:00 +24°C° 0 mm 3 mps 745 mmHg 54%
20:00 +22°C° 0 mm 3 mps 745 mmHg 54%
21:00 +20°C° 0 mm 3 mps 745 mmHg 54%
22:00 +20°C° 0 mm 3 mps 745 mmHg 54%
23:00 +19°C° 0 mm 3 mps 744 mmHg 54%

Day after tomorrow, 16 May, Sunday

Time Temperature Precipitation Wind Pressure Humidity
00:00 +19°C° 0 mm 4 mps 744 mmHg 54%
01:00 +18°C° 0 mm 3 mps 744 mmHg 55%
02:00 +17°C° 0 mm 3 mps 744 mmHg 57%
03:00 +17°C° 0 mm 3 mps 744 mmHg 59%
04:00 +17°C° 0 mm 3 mps 745 mmHg 60%
05:00 +18°C° 0 mm 3 mps 745 mmHg 60%
06:00 +19°C° 0 mm 2 mps 745 mmHg 60%
07:00 +20°C° 0 mm 3 mps 745 mmHg 55%
08:00 +22°C° 0 mm 4 mps 745 mmHg 51%
09:00 +25°C° 0 mm 4 mps 745 mmHg 46%
10:00 +26°C° 0 mm 4 mps 745 mmHg 43%
11:00 +27°C° 0 mm 4 mps 746 mmHg 41%
12:00 +28°C° 0 mm 5 mps 746 mmHg 38%
13:00 +28°C° 0 mm 4 mps 746 mmHg 37%
14:00 +28°C° 0 mm 4 mps 745 mmHg 37%
15:00 +29°C° 0 mm 4 mps 745 mmHg 36%
16:00 +28°C° 0 mm 3 mps 745 mmHg 41%
17:00 +27°C° 0 mm 2 mps 745 mmHg 46%
18:00 +26°C° 0 mm 1 mps 745 mmHg 50%
19:00 +25°C° 0 mm 1 mps 745 mmHg 50%
20:00 +24°C° 0 mm 1 mps 745 mmHg 49%
21:00 +22°C° 0 mm 1 mps 745 mmHg 49%
22:00 +21°C° 0 mm 2 mps 745 mmHg 50%
23:00 +21°C° 0 mm 2 mps 745 mmHg 50%

17 May, Monday

Time Temperature Precipitation Wind Pressure Humidity
00:00 +20°C° 0 mm 3 mps 745 mmHg 51%
01:00 +20°C° 0 mm 2 mps 745 mmHg 50%
02:00 +20°C° 0 mm 2 mps 745 mmHg 50%
03:00 +20°C° 0 mm 2 mps 745 mmHg 49%
04:00 +20°C° 0 mm 2 mps 745 mmHg 52%
05:00 +20°C° 0 mm 3 mps 745 mmHg 54%
06:00 +20°C° 0 mm 3 mps 745 mmHg 57%
07:00 +22°C° 0 mm 3 mps 745 mmHg 53%
08:00 +25°C° 0 mm 4 mps 745 mmHg 49%
09:00 +27°C° 0 mm 4 mps 745 mmHg 45%
10:00 +27°C° 0 mm 5 mps 746 mmHg 41%
11:00 +28°C° 0 mm 5 mps 746 mmHg 38%
12:00 +29°C° 0 mm 5 mps 746 mmHg 34%
13:00 +30°C° 0 mm 5 mps 745 mmHg 33%
14:00 +30°C° 0 mm 4 mps 745 mmHg 32%
15:00 +32°C° 0 mm 4 mps 745 mmHg 31%
16:00 +29°C° 0 mm 3 mps 745 mmHg 37%
17:00 +28°C° 0 mm 3 mps 745 mmHg 43%
18:00 +27°C° 0 mm 2 mps 744 mmHg 49%
19:00 +25°C° 0 mm 2 mps 744 mmHg 48%
20:00 +24°C° 0 mm 2 mps 745 mmHg 48%
21:00 +23°C° 0 mm 2 mps 745 mmHg 48%
22:00 +21°C° 0 mm 2 mps 745 mmHg 48%
23:00 +20°C° 0 mm 2 mps 744 mmHg 48%

18 May, Tuesday

Time Temperature Precipitation Wind Pressure Humidity
00:00 +20°C° 0 mm 2 mps 744 mmHg 48%
01:00 +19°C° 0 mm 3 mps 744 mmHg 48%
02:00 +19°C° 0 mm 3 mps 744 mmHg 48%
03:00 +18°C° 0 mm 3 mps 744 mmHg 48%
04:00 +18°C° 0 mm 3 mps 744 mmHg 51%
05:00 +18°C° 0 mm 3 mps 744 mmHg 54%
06:00 +19°C° 0 mm 3 mps 744 mmHg 57%
07:00 +20°C° 0 mm 4 mps 744 mmHg 52%
08:00 +22°C° 0 mm 4 mps 744 mmHg 47%
09:00 +25°C° 0 mm 5 mps 744 mmHg 43%
10:00 +26°C° 0 mm 5 mps 744 mmHg 40%
11:00 +28°C° 0 mm 5 mps 744 mmHg 37%
12:00 +29°C° 0 mm 5 mps 744 mmHg 35%
13:00 +30°C° 0 mm 5 mps 743 mmHg 35%
14:00 +30°C° 0 mm 5 mps 743 mmHg 35%
15:00 +32°C° 0 mm 5 mps 743 mmHg 35%
16:00 +29°C° 0 mm 4 mps 743 mmHg 40%
17:00 +28°C° 0 mm 4 mps 743 mmHg 45%
18:00 +27°C° 0 mm 3 mps 743 mmHg 50%
19:00 +26°C° 0 mm 3 mps 742 mmHg 47%
20:00 +24°C° 0 mm 3 mps 742 mmHg 44%
21:00 +22°C° 0 mm 4 mps 742 mmHg 41%
22:00 +22°C° 0 mm 4 mps 742 mmHg 42%
23:00 +21°C° 0 mm 4 mps 742 mmHg 42%

19 May, Wednesday

Time Temperature Precipitation Wind Pressure Humidity
00:00 +21°C° 0 mm 4 mps 742 mmHg 43%
01:00 +20°C° 0 mm 5 mps 742 mmHg 42%
02:00 +20°C° 0 mm 5 mps 742 mmHg 41%
03:00 +20°C° 0 mm 5 mps 742 mmHg 41%
04:00 +20°C° 0 mm 5 mps 742 mmHg 45%
05:00 +19°C° 0 mm 5 mps 742 mmHg 48%
06:00 +19°C° 0 mm 5 mps 742 mmHg 52%
07:00 +21°C° 0 mm 5 mps 742 mmHg 50%
08:00 +22°C° 0 mm 5 mps 743 mmHg 48%
09:00 +23°C° 0 mm 5 mps 743 mmHg 46%
10:00 +25°C° 0 mm 4 mps 743 mmHg 44%
11:00 +26°C° 0 mm 4 mps 743 mmHg 42%
12:00 +27°C° 0 mm 3 mps 743 mmHg 40%
13:00 +27°C° 0 mm 4 mps 743 mmHg 38%
14:00 +28°C° 0 mm 5 mps 743 mmHg 37%
15:00 +28°C° 0 mm 5 mps 743 mmHg 35%
16:00 +28°C° 0 mm 4 mps 743 mmHg 41%
17:00 +27°C° 0 mm 3 mps 743 mmHg 47%
18:00 +26°C° 0 mm 2 mps 743 mmHg 52%
19:00 +25°C° 0 mm 2 mps 743 mmHg 54%
20:00 +23°C° 0 mm 2 mps 743 mmHg 56%
21:00 +20°C° 0 mm 2 mps 743 mmHg 59%
22:00 +21°C° 0 mm 1 mps 743 mmHg 63%
23:00 +20°C° 0 mm 1 mps 744 mmHg 67%
Show more